Regional Weather Roundup
Issued by NWS

Home | Current Version | Previous Version | Text Only | Print | Product List | Glossary Off
Versions: 1 2 3 4 5 6 7 8 9 10 11 12 13 14 15 16 17 18 19 20 21 22 23 24 25 26 27 28 29 30 31 32 33 34 35 36 37 38 39 40 41 42 43 44 45 46 47 48 49 50

000
ASUS43 KMKX 061521
RWRWI

WISCONSIN REGIONAL WEATHER ROUNDUP
NATIONAL WEATHER SERVICE MILWAUKEE/SULLIVAN WI
1000 AM CDT WED MAY 06 2015

NOTE: "FAIR" INDICATES FEW OR NO CLOUDS BELOW 12,000 FEET WITH NO
SIGNIFICANT WEATHER AND/OR OBSTRUCTIONS TO VISIBILITY.

WIZ001-002-006>008-014>016-023>028-061600-
NORTHWEST WISCONSIN

CITY           SKY/WX    TMP DP  RH WIND       PRES   REMARKS
SUPERIOR ARPT  CLOUDY    43  39  85 NE7       30.11S
ASHLAND        LGT RAIN  54  51  90 SE3       30.15S FOG
HAYWARD        CLOUDY    55  49  80 SE7       30.12F
SIREN          CLOUDY    57  51  80 SE8       30.08F
CUMBERLAND     CLOUDY    52  50  93 SE8       30.11F FOG
RICE LAKE      CLOUDY    54  50  86 SE8       30.13F
CHETEK         CLOUDY    54  52  91 SE7       30.12F
LADYSMITH      CLOUDY    51  49  93 E8        30.15F
EAU CLAIRE     CLOUDY    56  52  86 E9        30.11F
MENOMONIE      CLOUDY    56  54  91 E8        30.11F FOG
NEW RICHMOND   CLOUDY    56  55  97 SE9G16    30.09S FOG
OSCEOLA        CLOUDY    57  57 100 SE13      30.11S FOG
$$

WIZ003>005-009-010-017-018-061600-
NORTH CENTRAL WISCONSIN

CITY           SKY/WX    TMP DP  RH WIND       PRES   REMARKS
MANITOWISH WTR LGT RAIN  47  46  96 SE6       30.19S
ARBOR VITAE    LGT RAIN  49  46  90 SE8       30.18F
WOODRUFF       LGT RAIN  49  46  90 SE8       30.18F
RHINELANDER    CLOUDY    52  45  77 S8        30.20F
EAGLE RIVER    LGT RAIN  50  39  66 CALM      30.20S
LAND O LAKES   CLOUDY    55  34  43 S5        30.21S
PHILLIPS       LGT RAIN  49  47  94 E6        30.16F
TOMAHAWK       CLOUDY    48  47  94 E5        30.19S
MEDFORD        CLOUDY    51  48  90 SE8       30.15F
MERRILL        LGT RAIN  48  48 100 CALM      30.19S
$$

WIZ029-030-035-036-043>047-061600-
CENTRAL WISCONSIN

CITY           SKY/WX    TMP DP  RH WIND       PRES   REMARKS
WAUSAU         CLOUDY    51  47  86 E8        30.17S
MOSINEE        CLOUDY    52  48  87 E6        30.18F
MARSHFIELD     MOSUNNY   58  49  72 SE14      30.15F
STEVENS POINT  CLOUDY    52  47  84 E9        30.18F
WAUPACA        CLOUDY    57  48  71 E7        30.20S
WAUTOMA        PTSUNNY   55  51  86 E8        30.18F
WISC RAPIDS    MOSUNNY   60  49  66 E8        30.17F
CAMP DOUGLAS   CLOUDY    55  55 100 SE7       30.15S
$$

WIZ011>013-019>022-031-037>040-048>050-061600-
NORTHEAST WISCONSIN

CITY           SKY/WX    TMP DP  RH WIND       PRES   REMARKS
ANTIGO         LGT RAIN  48  47  95 SE5       30.20S
SHAWANO        LGT RAIN  53  49  86 CALM      30.22S
OCONTO         CLOUDY    53  46  78 SE7       30.22S
STURGEON BAY   CLOUDY    52  37  58 SE9       30.25S
GREEN BAY      LGT RAIN  54  49  83 E6        30.21F
MANITOWOC      CLOUDY    51  47  86 E7        30.23F
APPLETON       PTSUNNY   55  46  71 SE8       30.20F
CLINTONVILLE   CLOUDY    50  46  87 CALM      30.22R
OSHKOSH        LGT RAIN  55  51  86 E8        30.19F
$$

WIZ032>034-041-042-053>061-061600-
SOUTHWEST WISCONSIN

CITY           SKY/WX    TMP DP  RH WIND       PRES   REMARKS
LA CROSSE      CLOUDY    61  55  81 SE6       30.11F
SPARTA         CLOUDY    58  55  91 E7        30.14S FOG
VIROQUA        CLOUDY    55  55 100 E6        30.13S VSB 1
BOSCOBEL       CLOUDY    59  56  89 E3        30.14S FOG
PRAIRIE DU CHI CLOUDY    59  55  86 E8        30.12F
PLATTEVILLE    CLOUDY    57  56  97 E10       30.14S
$$

WIZ056-057-062-063-064-067-068-061600-
SOUTH CENTRAL WISCONSIN

CITY           SKY/WX    TMP DP  RH WIND       PRES   REMARKS
REEDSBURG      CLOUDY    56  53  91 CALM      30.15S FOG
BARABOO/DELLS  NOT AVBL
LONE ROCK      CLOUDY    56  54  93 E7        30.16R FOG
MINERAL POINT  LGT RAIN  55  54  94 E8        30.14F
MADISON        LGT RAIN  55  53  93 VRB6      30.17F FOG
MIDDLETON      CLOUDY    55  54  97 SE5       30.17S
WATERTOWN      CLOUDY    55  55 100 E5        30.17S FOG
MONROE         CLOUDY    52  52 100 CALM      30.16S FOG
JANESVILLE     CLOUDY    57  55  94 SW3       30.18S FOG
$$

WIZ051-052-058>065-066-070>072-061600-
SOUTHEAST WISCONSIN

CITY           SKY/WX    TMP DP  RH WIND       PRES   REMARKS
MILWAUKEE      CLOUDY    49  46  90 CALM      30.21S FOG
WAUKESHA       CLOUDY    52  50  93 E6        30.20F FOG
MILWAUKEE/TIMM CLOUDY    50  46  87 NE5       30.21F FOG
RACINE         CLOUDY    52  50  93 E5        30.22S FOG
BURLINGTON     CLOUDY    52  52  99 E3        30.19S FOG
KENOSHA        FOG       55  53  93 E6        30.19F VSB 1/2
FOND DU LAC    PTSUNNY   58  53  84 S8        30.19F
SHEBOYGAN      FOG       51  50  96 E8        30.22F VSB 1/4
WEST BEND      CLOUDY    52  50  93 E6        30.21R
JUNEAU         CLOUDY    58  54  86 E7        30.19F
$$

LSZ147-162-061600-
LAKE SUPERIOR

STATION/POSITION TIME  TEMP    WIND        PRES    WAVE
                       AIR SEA DIR/SP/G            HT/PER
                 (UTC) (F)     (DEG/KT/KT) (MB)    (FT/S)
W MID LAKE BUOY  1450   40 36   90/  8/  8 1022.3F   0
DEVILS ISLAND    1500   47      90/  8/  9 1021.4F
PORT WING        1440   41     350/  2/ 10 1020.3F
SAXON HARBOR     1440   60     190/  5/ 12 1020.3F
$$

LMZ867-665-643>646-061600-
LAKE MICHIGAN

STATION/POSITION TIME  TEMP    WIND        PRES    WAVE
                       AIR SEA DIR/SP/G            HT/PER
                 (UTC) (F)     (DEG/KT/KT) (MB)    (FT/S)
CHAMBERS ISLAND  1400   53      60/  3/  4 1024.0S
NORTHPORT PIER   1400   43     120/  4/  5 1024.0S
SISTER BAY       1402   57        CALM       N/A
KEWAUNEE LAKESHO 1500           70/  2/  5 1023.0F
SHEBOYGAN LAKESH 1500   44      10/  3/  4 1024.3S
PORT WASHINGTON  1440   46      40/  3/  6 1024.0S
ATWATER BUOY     1500   43      60/  4/  6 1024.2S
MILWAUKEE LAKESH 1500   43      50/  6/  7   N/A
KENOSHA   LAKESH 1500   44      20/  5/  6 1022.7S
$$

TC  - TEMPERATURE IN CELSIUS
VSB - VISIBILITY IN STATUTE MILES
WCI - WIND CHILL INDEX
HX  - HEAT INDEX




USA.gov is the U.S. government's official web portal to all federal, state and local government web resources and services.